Regional Weather Roundup
Issued by NWS Albany, NY

Home | Current Version | Previous Version | Graphics & Text | Print | Product List | Glossary Off
Versions: 1 2 3 4 5 6 7 8 9 10 11 12 13 14 15 16 17 18 19 20 21 22 23 24 25 26 27

000
ASUS41 KALY 032210
RWRALY

NEW YORK STATE HOURLY WEATHER ROUNDUP
NATIONAL WEATHER SERVICE ALBANY NY
500 PM EST SAT DEC 03 2016

NOTE: "FAIR" INDICATES FEW OR NO CLOUDS BELOW 12,000 FEET WITH NO
SIGNIFICANT WEATHER AND/OR NO OBSTRUCTIONS TO VISIBILITY.

NYZ032-033-038>043-046>054-057>066-NYZ062>081-082-084-032300-
EAST


CITY           SKY/WX    TMP DP  RH WIND       PRES   REMARKS
ALBANY         MOCLDY    38  24  57 NW14G26   30.08R WCI  30
GLENS FALLS    CLOUDY    38  21  50 NW12      30.06R WCI  30
POUGHKEEPSIE   CLOUDY    40  26  57 NW6       30.08R
NEWBURGH       MOCLDY    41  28  60 NW16      30.09R
MONTGOMERY     CLOUDY    43  27  53 NW8G21    30.09R
WHITE PLAINS   PTCLDY    42  25  50 NW18G25   30.05R
ISLIP          PTCLDY    44  24  45 NW18G29   30.05R
NEW YORK CITY  MOCLDY    47  29  49 NW15G30   30.08R
CENTRAL PARK   MOCLDY    45  26  47 NW10G20   30.11R
$$

NYZ005>009-017-018-044>046-055-056-032300-
CENTRAL


CITY           SKY/WX    TMP DP  RH WIND       PRES   REMARKS
FULTON         CLOUDY    38  28  67 NW17G25   30.15R WCI  28
SYRACUSE       FLURRIES  35  31  85 W6        30.14R WCI  30
ROME           CLOUDY    34  32  92 NW9       30.14R WCI  27
ELMIRA         CLOUDY    40  27  59 NW9       30.15R WCI  34
BINGHAMTON     CLOUDY    32  30  92 NW7       30.10R WCI  26
MONTICELLO     CLOUDY    34  30  86 NW15G21   30.09R WCI  24
$$

NYZ026>034-041>043-087-032300-
NORTH


CITY           SKY/WX    TMP DP  RH WIND       PRES   REMARKS
WATERTOWN      CLOUDY    36  23  59 NW12      30.15R WCI  28
FORT DRUM      NOT AVBL
OGDENSBURG     MOCLDY    36  26  66 NW10      30.12R WCI  28
MASSENA        CLOUDY    36  22  56 NW9       30.11R WCI  29
SARANAC LAKE   CLOUDY    27  22  81 VRB3      30.00R
PLATTSBURGH    CLOUDY    35  24  64 NW14G21   30.05R WCI  26
$$

NYZ001>004-010>016-019>021-085-032300-
WEST


CITY           SKY/WX    TMP DP  RH WIND       PRES   REMARKS
NIAGARA FALLS  CLOUDY    41  26  55 NW9       30.21S
BUFFALO        CLOUDY    39  25  57 W13       30.22R WCI  31
DUNKIRK        CLOUDY    40  34  79 W10       30.23S WCI  33
JAMESTOWN      MOCLDY    36  30  80 NW9       30.19R WCI  29
WELLSVILLE     LGT RAIN  35  31  85 NW7       30.15S WCI  29
ROCHESTER      CLOUDY    39  28  64 NW10      30.20R WCI  32
PENN YAN       CLOUDY    37  29  72 W9        30.17R WCI  30
$$

             KEY
       WCI = WIND CHILL INDEX
       VSB = VISIBILITY
       HX  = HEAT INDEX
$$




USA.gov is the U.S. government's official web portal to all federal, state and local government web resources and services.